Location: Weatherford
(35.5260°N, 98.7070°W)
Time: 00:24:10
(UTC-05:00)

Amateur Radio Satellites - All Passes

Search period start: 03 August 2015 23:54
Search period end: 04 August 2015 23:54
Location: Weatherford, 35.5260°N, 98.7070°W

Satellite Date Start Highest point End Downlink Frequencies (MHz)
Time Altitude Azimuth
VELOX 1 03 Aug 23:54:51 23:59:15 84° 76° (ENE) 00:03:40 145.980
AUBIESAT-1 03 Aug 23:55:10 23:59:45 51° 291° (WNW) 00:04:07 437.475
YUBILEINY 03 Aug 23:59:55 00:06:55 29° 86° (E) 00:14:13 435.215
DUCHIFAT 1 03 Aug 23:59:57 00:03:08 21° 94° (E) 00:06:25 145.980
AIST 2 04 Aug 00:05:11 00:08:49 29° 113° (ESE) 00:12:31 435.215
NANOSAT C BR1 04 Aug 00:05:19 00:08:49 25° 95° (E) 00:12:23 145.865
QB50P1 04 Aug 00:05:21 00:08:53 25° 95° (E) 00:12:28 145.935-145.965
ZACube-1 04 Aug 00:06:46 00:07:47 11° 271° (W) 00:08:31 437.345
ESTCUBE 1 04 Aug 00:18:34 00:23:06 77° 258° (WSW) 00:27:38 437.505/2401.250
BEESAT 3 04 Aug 00:25:31 00:28:56 25° 308° (NW) 00:32:20 437.485
HUMSAT D 04 Aug 00:26:30 00:29:00 15° 268° (W) 00:31:22 437.325/437.525
UKube-1 04 Aug 00:33:26 00:36:45 21° 266° (W) 00:39:58 .
TIGRISAT 04 Aug 00:35:36 00:40:10 51° 286° (WNW) 00:44:43 435.000
ANTELSAT 04 Aug 00:38:48 00:43:19 45° 286° (WNW) 00:47:48 437.575/2403.000
O/OREOS (USA 219) 04 Aug 00:45:35 00:48:13 16° 101° (E) 00:51:04 437.305
PHONESAT 2.4 04 Aug 00:47:25 00:50:54 67° 205° (SSW) 00:54:22 2401.200-2431.200
POLYITAN 1 04 Aug 00:49:31 00:53:49 89° 285° (WNW) 00:58:08 437.675
BUGSAT 1 04 Aug 00:52:59 00:57:00 56° 100° (E) 01:01:04 437.445
AISAT 04 Aug 00:54:40 00:57:54 19° 266° (W) 01:00:59 437.250
AIST 1 04 Aug 00:56:17 00:59:16 18° 271° (W) 01:02:05
CUBEBUG 1 04 Aug 00:58:13 01:02:07 31° 263° (W) 01:05:58 437.445
50 SAT 04 Aug 01:01:27 01:02:55 11° 270° (W) 01:04:08 437.505
POPSAT HIP 1 04 Aug 01:05:23 01:09:35 58° 285° (WNW) 01:13:47 437.405
QB50P2 04 Aug 01:13:59 01:18:04 44° 286° (WNW) 01:22:07 145.880/145.840
TISAT 1 04 Aug 01:21:01 01:25:10 77° 77° (ENE) 01:29:21 437.305
SPROUT 04 Aug 01:21:37 01:25:50 61° 259° (W) 01:30:04 437.525
RS-15 04 Aug 01:25:55 01:32:50 17° 339° (NNW) 01:39:34 29.354- 29.394
UNISAT 6 04 Aug 01:32:04 01:34:28 14° 293° (WNW) 01:36:38 437.425
DUCHIFAT 1 04 Aug 01:35:18 01:38:56 27° 288° (WNW) 01:42:30 145.980
Cosmos 2491 04 Aug 01:39:52 01:47:20 32° 274° (W) 01:54:34 435.465 / 435.565
NANOSAT C BR1 04 Aug 01:41:09 01:44:33 23° 289° (WNW) 01:47:52 145.865
Oscar 19 04 Aug 01:41:13 01:41:46 10° 88° (E) 01:42:43 437.125/150
QB50P1 04 Aug 01:41:15 01:44:38 23° 289° (WNW) 01:47:56 145.935-145.965
AIST 2 04 Aug 01:43:53 01:47:24 24° 309° (NW) 01:50:50 435.215
BEESAT 04 Aug 01:48:47 01:52:35 25° 70° (ENE) 01:56:31 436.000
YUBILEINY 04 Aug 01:54:55 02:03:21 52° 282° (WNW) 02:11:50 435.215
SWISSCUBE 04 Aug 02:09:01 02:13:33 44° 73° (ENE) 02:18:08 437.505
O/OREOS (USA 219) 04 Aug 02:23:10 02:27:22 38° 295° (WNW) 02:31:34 437.305
PHONESAT 2.4 04 Aug 02:27:04 02:28:28 12° 218° (SW) 02:29:45 2401.200-2431.200
ITUPSAT 1 04 Aug 02:31:18 02:36:05 70° 75° (ENE) 02:40:54 437.325
BUGSAT 1 04 Aug 02:31:41 02:32:04 10° 293° (WNW) 02:32:11 437.445
JUGNU 04 Aug 02:45:33 02:48:17 13° 170° (S) 02:51:05 437.505
STARS 04 Aug 02:55:07 02:55:22 10° 66° (ENE) 02:55:55 437.465
Cosmos 2504 04 Aug 02:57:53 03:04:38 49° 90° (E) 03:11:55 435.465 / 435.565
Gurwin Techsat 1B 04 Aug 03:02:48 03:06:46 22° 93° (E) 03:10:52 435.225
ITAMSAT 1 04 Aug 03:06:34 03:10:12 20° 93° (E) 03:14:01 435.822/435.867
Oscar 19 04 Aug 03:16:34 03:21:46 76° 284° (WNW) 03:26:57 437.125/150
ISS 04 Aug 03:25:20 03:28:25 38° 37° (NE) 03:31:29 145.825
KKS-1 04 Aug 03:25:52 03:30:00 41° 73° (ENE) 03:34:11 437.445
BEESAT 04 Aug 03:26:07 03:30:20 29° 264° (W) 03:34:29 436.000
RS-15 04 Aug 03:46:09 03:51:58 15° 15° (NNE) 03:58:15 29.354- 29.394
SWISSCUBE 04 Aug 03:48:35 03:51:40 16° 268° (W) 03:54:31 437.505
AO-7 04 Aug 04:02:41 04:06:54 15° 89° (E) 04:11:44 29.400- 29.500
JAS-2 04 Aug 04:02:58 04:10:10 39° 95° (E) 04:17:11 435.910
STARS 04 Aug 04:27:00 04:31:20 65° 259° (W) 04:35:41 437.465
HORYU 2 04 Aug 04:27:57 04:30:29 15° 92° (E) 04:33:13 437.375
JUGNU 04 Aug 04:32:49 04:36:34 17° 179° (S) 04:40:21 437.505
MOZHAYETS 4 04 Aug 04:39:59 04:44:00 31° 72° (ENE) 04:48:07
Gurwin Techsat 1B 04 Aug 04:41:57 04:46:54 40° 288° (WNW) 04:51:47 435.225
SRMSAT 04 Aug 04:43:23 04:46:15 14° 170° (S) 04:49:11 437.500
ITAMSAT 1 04 Aug 04:45:03 04:49:55 41° 288° (WNW) 04:54:43 435.822/435.867
Cosmos 2504 04 Aug 04:51:19 04:57:16 26° 290° (WNW) 05:03:19 435.465 / 435.565
CUSAT 1 04 Aug 05:02:26 05:05:12 47° 280° (W) 05:07:44 437.405
ISS 04 Aug 05:02:30 05:04:38 16° 231° (SW) 05:06:42 145.825
KKS-1 04 Aug 05:04:16 05:06:52 15° 268° (W) 05:09:16 437.445
DANDE 04 Aug 05:05:34 05:08:49 83° 94° (E) 05:11:32 436.750
JAS-2 04 Aug 05:47:52 05:55:09 41° 291° (WNW) 06:02:06 435.910
AO-7 04 Aug 05:52:28 06:00:51 89° 287° (WNW) 06:09:10 29.400- 29.500
RS-15 04 Aug 05:58:17 06:09:05 41° 46° (NE) 06:20:27 29.354- 29.394
HORYU 2 04 Aug 06:03:05 06:07:21 41° 287° (WNW) 06:11:34 437.375
MOZHAYETS 4 04 Aug 06:17:36 06:21:16 22° 267° (W) 06:24:50
JUGNU 04 Aug 06:21:49 06:24:52 14° 189° (S) 06:27:51 437.505
SRMSAT 04 Aug 06:30:59 06:34:42 17° 180° (S) 06:38:25 437.500
GONETS M04 04 Aug 06:36:26 06:45:02 70° 93° (E) 06:53:40
CUTE-I 04 Aug 06:38:38 06:40:51 13° 90° (E) 06:43:24 437.470
CUBESAT XI-V 04 Aug 06:42:45 06:47:16 52° 75° (ENE) 06:51:50 437.345
STRAND 1 04 Aug 06:56:13 07:00:09 23° 68° (ENE) 07:04:13 437.568
Cubesat XI-IV 04 Aug 07:21:36 07:26:29 37° 97° (E) 07:31:24 437.490
AO-7 04 Aug 07:47:21 07:52:41 18° 304° (NW) 07:57:37 29.400- 29.500
Cosmos 2499 04 Aug 07:54:02 08:01:02 49° 90° (E) 08:08:39 435.465 / 435.565
PRISM 04 Aug 07:56:53 08:01:04 80° 76° (ENE) 08:05:15 437.425
PCSat 04 Aug 08:02:43 08:06:07 18° 106° (ESE) 08:09:45 145.827
RS-15 04 Aug 08:10:34 08:22:12 60° 247° (WSW) 08:34:02 29.354- 29.394
BEESAT 2 04 Aug 08:11:33 08:14:51 24° 52° (NE) 08:18:10 435.950
CUTE-I 04 Aug 08:16:12 08:21:29 65° 286° (WNW) 08:26:43 437.470
SRMSAT 04 Aug 08:20:18 08:23:08 14° 190° (S) 08:25:54 437.500
CUBESAT XI-V 04 Aug 08:22:50 08:25:05 13° 270° (W) 08:27:04 437.345
STRAND 1 04 Aug 08:34:26 08:39:10 36° 262° (W) 08:43:53 437.568
GONETS M04 04 Aug 08:36:11 08:42:46 22° 293° (WNW) 08:48:57
GOMX 1 04 Aug 08:36:54 08:39:44 16° 93° (E) 08:42:55 467.674
BRITE-PL 04 Aug 08:42:32 08:46:35 31° 97° (E) 08:50:58 437.365/2234.400
BEESAT 3 04 Aug 08:45:51 08:49:53 76° 60° (ENE) 08:53:51 437.485
Cubesat XI-IV 04 Aug 09:02:09 09:06:25 24° 292° (WNW) 09:10:32 437.490
CANX-2 04 Aug 09:02:31 09:04:29 13° 90° (E) 09:06:40 2200.000
AUBIESAT-1 04 Aug 09:08:02 09:09:15 11° 60° (ENE) 09:10:43 437.475
SO-50 04 Aug 09:14:08 09:18:50 77° 118° (ESE) 09:23:43 436.795
CINEMA 3 04 Aug 09:30:13 09:33:07 16° 92° (E) 09:36:16 145.822/145.860
HO-68 04 Aug 09:37:11 09:43:51 41° 98° (E) 09:50:35 435.675
PCSat 04 Aug 09:43:53 09:49:09 52° 300° (WNW) 09:54:28 145.827
DOVE 4 04 Aug 09:44:52 09:49:33 54° 100° (E) 09:54:29 437.250
Cosmos 2499 04 Aug 09:48:17 09:54:36 28° 290° (WNW) 10:01:07 435.465 / 435.565
BEESAT 2 04 Aug 09:49:28 09:52:51 25° 247° (WSW) 09:56:07 435.950
COMPASS 1 04 Aug 09:58:15 10:02:03 33° 97° (E) 10:05:52 437.405
AIST 2 04 Aug 10:07:22 10:11:33 87° 244° (WSW) 10:15:40 435.215
M-CUBED/EXP-1 PRIME 04 Aug 10:13:24 10:17:26 74° 71° (ENE) 10:21:52 437.505
GOMX 1 04 Aug 10:13:36 10:18:03 45° 285° (WNW) 10:22:47 467.674
YUBILEINY 04 Aug 10:16:33 10:18:16 11° 58° (ENE) 10:20:48 435.215
SEEDS 04 Aug 10:18:49 10:23:06 80° 101° (ESE) 10:27:19 437.485
ZACube-1 04 Aug 10:19:52 10:22:07 14° 91° (E) 10:24:37 437.345
BRITE-PL 04 Aug 10:21:29 10:25:00 22° 288° (WNW) 10:28:37 437.365/2234.400
CUTE 1.7 + AOD 2 04 Aug 10:27:29 10:31:44 63° 284° (WNW) 10:35:56 437.475
AAUSAT CUBESAT 2 04 Aug 10:36:15 10:40:28 84° 102° (ESE) 10:44:38 437.432
CANX-2 04 Aug 10:36:35 10:40:40 43° 286° (WNW) 10:44:42 2200.000
FUNcube-1 04 Aug 10:38:52 10:42:24 22° 94° (E) 10:46:03 145.935
AUBIESAT-1 04 Aug 10:39:19 10:43:21 63° 255° (WSW) 10:47:44 437.475
Oscar 11 04 Aug 10:45:02 10:49:11 42° 98° (E) 10:53:19 145.826/435.025
UNISAT 6 04 Aug 10:49:49 10:53:41 33° 72° (ENE) 10:57:43 437.425
UWE-3 04 Aug 10:50:03 10:54:27 41° 98° (E) 10:58:53 435.000/436.395/437.385
DUCHIFAT 1 04 Aug 10:51:34 10:52:38 11° 67° (ENE) 10:53:57 145.980
NANOSAT C BR1 04 Aug 10:56:27 10:58:23 13° 68° (ENE) 11:00:31 145.865
QB50P1 04 Aug 10:56:38 10:58:39 14° 68° (ENE) 11:00:53 145.935-145.965
O/OREOS (USA 219) 04 Aug 10:57:17 11:00:41 21° 60° (ENE) 11:04:12 437.305
SO-50 04 Aug 10:57:26 11:00:02 14° 317° (NW) 11:02:31 436.795
CINEMA 3 04 Aug 11:05:55 11:10:31 46° 285° (WNW) 11:15:14 145.822/145.860
CUBEBUG 2 04 Aug 11:12:53 11:17:37 84° 280° (W) 11:22:22 437.445
DX 1 04 Aug 11:21:34 11:24:13 16° 93° (E) 11:27:04 434.975-435.025
DOVE 4 04 Aug 11:24:15 11:26:59 15° 291° (WNW) 11:29:32 437.250
HO-68 04 Aug 11:25:06 11:31:28 34° 294° (WNW) 11:37:42 435.675
TIGRISAT 04 Aug 11:31:05 11:35:26 84° 258° (WSW) 11:39:54 435.000
DELFI C3 04 Aug 11:32:28 11:36:31 74° 284° (WNW) 11:40:31 145.870
ANTELSAT 04 Aug 11:34:29 11:38:49 73° 259° (WSW) 11:43:18 437.575/2403.000
COMPASS 1 04 Aug 11:34:40 11:37:29 17° 291° (WNW) 11:40:09 437.405
POLYITAN 1 04 Aug 11:39:30 11:43:28 44° 74° (ENE) 11:47:31 437.675
BUGSAT 1 04 Aug 11:40:36 11:43:55 26° 72° (ENE) 11:47:18 437.445
AIST 1 04 Aug 11:44:59 11:48:06 20° 90° (E) 11:51:20
VELOX 1 04 Aug 11:49:07 11:52:17 20° 94° (E) 11:55:35 145.980
ZACube-1 04 Aug 11:54:21 11:58:45 48° 286° (WNW) 12:03:10 437.345
POPSAT HIP 1 04 Aug 11:54:52 11:59:01 68° 76° (ENE) 12:03:12 437.405
QB50P2 04 Aug 12:03:26 12:07:39 89° 259° (WSW) 12:11:53 145.880/145.840
YUBILEINY 04 Aug 12:08:21 12:17:10 69° 81° (E) 12:25:58 435.215
HUMSAT D 04 Aug 12:11:14 12:15:35 77° 283° (WNW) 12:19:54 437.325/437.525
ESTCUBE 1 04 Aug 12:14:43 12:18:31 27° 96° (E) 12:22:23 437.505/2401.250
FUNcube-1 04 Aug 12:14:44 12:18:43 30° 288° (WNW) 12:22:40 145.935
UKube-1 04 Aug 12:22:31 12:26:51 80° 101° (ESE) 12:31:10 .
Oscar 11 04 Aug 12:22:31 12:25:02 15° 292° (WNW) 12:27:20 145.826/435.025
DUCHIFAT 1 04 Aug 12:23:56 12:28:01 53° 260° (W) 12:32:06 145.980
UNISAT 6 04 Aug 12:27:29 12:30:36 18° 268° (W) 12:33:36 437.425
UWE-3 04 Aug 12:27:33 12:30:40 17° 291° (WNW) 12:33:39 435.000/436.395/437.385
NANOSAT C BR1 04 Aug 12:29:53 12:33:52 43° 261° (W) 12:37:53 145.865
QB50P1 04 Aug 12:30:12 12:34:11 42° 261° (W) 12:38:11 145.935-145.965
O/OREOS (USA 219) 04 Aug 12:36:04 12:40:13 33° 256° (WSW) 12:44:18 437.305
50 SAT 04 Aug 12:36:44 12:40:44 83° 285° (WNW) 12:44:41 437.505
Cosmos 2491 04 Aug 12:39:18 12:47:52 62° 93° (E) 12:56:28 435.465 / 435.565
AISAT 04 Aug 12:46:39 12:51:06 82° 282° (WNW) 12:55:32 437.250
Cosmos 2504 04 Aug 12:49:18 12:53:05 14° 63° (ENE) 12:57:33 435.465 / 435.565
CUBEBUG 1 04 Aug 12:49:23 12:53:39 57° 100° (E) 12:57:55 437.445
Oscar 19 04 Aug 12:54:47 12:56:41 12° 64° (ENE) 12:58:51 437.125/150
DX 1 04 Aug 12:56:38 13:00:38 36° 288° (WNW) 13:04:35 434.975-435.025
TISAT 1 04 Aug 13:09:44 13:12:06 15° 92° (E) 13:14:39 437.305
SPROUT 04 Aug 13:11:30 13:15:12 28° 96° (E) 13:18:56 437.525
BUGSAT 1 04 Aug 13:16:21 13:19:23 20° 266° (W) 13:22:17 437.445
POLYITAN 1 04 Aug 13:17:51 13:19:40 12° 269° (W) 13:21:16 437.675
AIST 1 04 Aug 13:21:53 13:25:36 27° 284° (WNW) 13:29:15
VELOX 1 04 Aug 13:25:00 13:28:55 31° 288° (WNW) 13:32:45 145.980
ESTCUBE 1 04 Aug 13:51:42 13:55:17 23° 290° (WNW) 13:58:45 437.505/2401.250
YUBILEINY 04 Aug 14:06:51 14:13:18 22° 277° (W) 14:19:18 435.215
SWISSCUBE 04 Aug 14:13:53 14:16:18 14° 91° (E) 14:18:59 437.505
JAS-2 04 Aug 14:16:31 14:17:54 11° 57° (ENE) 14:19:47 435.910
Gurwin Techsat 1B 04 Aug 14:20:58 14:25:16 27° 69° (ENE) 14:29:42 435.225
ITAMSAT 1 04 Aug 14:21:40 14:25:40 24° 68° (ENE) 14:29:49 435.822/435.867
CUBEBUG 1 04 Aug 14:28:11 14:29:34 11° 293° (WNW) 14:30:42 437.445
Oscar 19 04 Aug 14:30:24 14:35:30 71° 259° (W) 14:40:37 437.125/150
ITUPSAT 1 04 Aug 14:35:43 14:39:23 23° 94° (E) 14:43:10 437.325
Cosmos 2504 04 Aug 14:38:15 14:46:50 80° 83° (E) 14:55:27 435.465 / 435.565
Cosmos 2491 04 Aug 14:38:23 14:45:26 25° 291° (WNW) 14:52:09 435.465 / 435.565
TISAT 1 04 Aug 14:44:08 14:48:02 37° 287° (WNW) 14:51:54 437.305
SPROUT 04 Aug 14:47:50 14:51:08 21° 290° (WNW) 14:54:19 437.525
AO-7 04 Aug 14:58:51 15:04:07 20° 57° (ENE) 15:09:46 29.400- 29.500
HORYU 2 04 Aug 15:25:33 15:26:09 10° 65° (ENE) 15:27:01 437.375
BEESAT 04 Aug 15:28:35 15:33:22 89° 103° (ESE) 15:38:07 436.000
CUSAT 1 04 Aug 15:37:15 15:42:00 66° 81° (E) 15:48:20 437.405
DANDE 04 Aug 15:44:32 15:48:42 47° 81° (E) 15:54:18 436.750
SWISSCUBE 04 Aug 15:49:54 15:54:31 49° 286° (WNW) 15:59:03 437.505
JAS-2 04 Aug 15:55:36 16:01:41 73° 74° (ENE) 16:08:39 435.910
ITAMSAT 1 04 Aug 16:00:11 16:04:59 37° 262° (W) 16:09:47 435.822/435.867
Gurwin Techsat 1B 04 Aug 16:00:20 16:05:08 33° 263° (W) 16:09:54 435.225
ITUPSAT 1 04 Aug 16:13:06 16:17:20 32° 289° (WNW) 16:21:29 437.325
VERMONT LUNAR 04 Aug 16:15:08 16:17:23 18° 146° (SE) 16:19:42 437.305
STARS 04 Aug 16:19:57 16:23:45 28° 96° (E) 16:27:37 437.465
Cosmos 2504 04 Aug 16:32:35 16:38:15 19° 278° (W) 16:43:26 435.465 / 435.565
AO-7 04 Aug 16:47:37 16:56:01 87° 253° (WSW) 17:04:27 29.400- 29.500
GONETS M04 04 Aug 16:51:04 16:58:15 29° 70° (ENE) 17:05:43
KKS-1 04 Aug 16:56:01 17:00:27 61° 285° (WNW) 17:04:51 437.445
HORYU 2 04 Aug 16:57:52 17:02:16 66° 258° (WSW) 17:06:44 437.375
CUSAT 1 04 Aug 17:22:09 17:24:36 13° 266° (W) 17:26:53 437.405
DANDE 04 Aug 17:29:08 17:31:53 15° 264° (W) 17:34:44 436.750
PHONESAT 2.4 04 Aug 17:33:48 17:33:57 10° 142° (SE) 17:34:14 2401.200-2431.200
JAS-2 04 Aug 17:44:06 17:47:46 15° 275° (W) 17:51:15 435.910
SO-50 04 Aug 17:48:51 17:53:16 32° 52° (NE) 17:57:37 436.795
Cosmos 2499 04 Aug 17:49:50 17:54:35 16° 63° (ENE) 17:59:58 435.465 / 435.565
VERMONT LUNAR 04 Aug 17:50:42 17:53:51 76° 341° (NNW) 17:57:02 437.305
STARS 04 Aug 17:56:35 18:00:04 22° 290° (WNW) 18:03:26 437.465
CUTE-I 04 Aug 17:57:17 18:00:39 18° 66° (ENE) 18:04:14 437.470
MOZHAYETS 4 04 Aug 18:14:31 18:19:08 74° 283° (WNW) 18:23:42
PCSat 04 Aug 18:34:35 18:39:59 65° 61° (ENE) 18:45:21 145.827
Cubesat XI-IV 04 Aug 18:40:34 18:45:39 46° 72° (ENE) 18:50:47 437.490
CUBESAT XI-V 04 Aug 18:43:42 18:46:28 16° 92° (E) 18:49:25 437.345
AO-7 04 Aug 18:45:33 18:50:02 14° 271° (W) 18:53:52 29.400- 29.500
GONETS M04 04 Aug 18:47:08 18:55:34 54° 269° (W) 19:03:57
PHONESAT 2.4 04 Aug 19:08:02 19:11:28 58° 154° (SSE) 19:14:56 2401.200-2431.200
VERMONT LUNAR 04 Aug 19:27:55 19:30:49 32° 356° (N) 19:33:43 437.305
SO-50 04 Aug 19:29:33 19:33:43 27° 248° (WSW) 19:37:42 436.795
CUTE-I 04 Aug 19:35:07 19:40:21 53° 260° (W) 19:45:35 437.470
Cosmos 2499 04 Aug 19:40:19 19:49:13 86° 83° (E) 19:58:04 435.465 / 435.565
PRISM 04 Aug 19:43:49 19:45:44 13° 92° (E) 19:47:52 437.425
GOMX 1 04 Aug 19:45:16 19:45:43 10° 67° (ENE) 19:46:25 467.674
BRITE-PL 04 Aug 19:51:40 19:55:05 24° 72° (ENE) 19:58:28 437.365/2234.400
ISS 04 Aug 20:02:15 20:05:28 62° 136° (SE) 20:08:41 145.825
HO-68 04 Aug 20:03:50 20:09:02 23° 63° (ENE) 20:14:29 435.675
CUBESAT XI-V 04 Aug 20:19:48 20:24:08 40° 286° (WNW) 20:28:23 437.345
PCSat 04 Aug 20:20:02 20:22:55 14° 255° (WSW) 20:25:29 145.827
RS-15 04 Aug 20:20:20 20:28:51 29° 106° (ESE) 20:37:59 29.354- 29.394
Cubesat XI-IV 04 Aug 20:22:11 20:26:01 19° 268° (W) 20:29:40 437.490
PHONESAT 2.4 04 Aug 20:46:10 20:49:31 42° 349° (N) 20:52:53 2401.200-2431.200
COMPASS 1 04 Aug 20:47:28 20:50:04 17° 69° (ENE) 20:52:49 437.405
STRAND 1 04 Aug 20:47:29 20:52:37 84° 284° (WNW) 20:57:42 437.568
DOVE 4 04 Aug 20:48:29 20:52:12 34° 73° (ENE) 20:55:59 437.250
VERMONT LUNAR 04 Aug 21:04:51 21:07:54 42° 12° (NNE) 21:10:56 437.305
SEEDS 04 Aug 21:07:49 21:11:42 36° 73° (ENE) 21:15:39 437.485
CUTE 1.7 + AOD 2 04 Aug 21:16:57 21:21:09 61° 76° (ENE) 21:25:25 437.475
PRISM 04 Aug 21:17:34 21:21:24 38° 287° (WNW) 21:25:11 437.425
GOMX 1 04 Aug 21:19:22 21:23:30 53° 260° (W) 21:27:33 467.674
AAUSAT CUBESAT 2 04 Aug 21:23:55 21:27:46 37° 73° (ENE) 21:31:40 437.432
CANX-2 04 Aug 21:25:54 21:30:11 89° 78° (ENE) 21:34:30 2200.000
BRITE-PL 04 Aug 21:30:07 21:33:36 23° 265° (W) 21:36:54 437.365/2234.400
FUNcube-1 04 Aug 21:33:46 21:35:11 12° 67° (ENE) 21:36:51 145.935
Cosmos 2499 04 Aug 21:35:58 21:41:28 17° 278° (W) 21:46:23 435.465 / 435.565
Oscar 11 04 Aug 21:37:21 21:40:44 23° 71° (ENE) 21:44:15 145.826/435.025
ISS 04 Aug 21:40:08 21:42:11 15° 332° (NNW) 21:44:11 145.825
UWE-3 04 Aug 21:45:06 21:48:18 22° 70° (ENE) 21:51:41 435.000/436.395/437.385
HO-68 04 Aug 21:49:14 21:56:17 62° 258° (WSW) 22:03:22 435.675
CINEMA 3 04 Aug 22:04:52 22:08:59 68° 259° (W) 22:13:13 145.822/145.860
CUBEBUG 2 04 Aug 22:08:19 22:12:23 54° 75° (ENE) 22:16:35 437.445
DELFI C3 04 Aug 22:16:23 22:20:12 42° 74° (ENE) 22:24:05 145.870
DX 1 04 Aug 22:16:38 22:17:15 10° 66° (ENE) 22:18:08 434.975-435.025
COMPASS 1 04 Aug 22:21:35 22:25:28 35° 263° (W) 22:29:21 437.405
AUBIESAT-1 04 Aug 22:24:20 22:26:40 14° 94° (E) 22:29:10 437.475
PHONESAT 2.4 04 Aug 22:24:36 22:27:54 37° 6° (N) 22:31:12 2401.200-2431.200
DOVE 4 04 Aug 22:27:41 22:30:10 15° 268° (W) 22:32:29 437.250
RS-15 04 Aug 22:29:37 22:40:27 67° 304° (NW) 22:51:41 29.354- 29.394
BEESAT 3 04 Aug 22:35:45 22:39:11 28° 113° (ESE) 22:42:42 437.485
VERMONT LUNAR 04 Aug 22:41:34 22:44:37 46° 208° (SSW) 22:47:40 437.305
SEEDS 04 Aug 22:45:02 22:47:40 15° 268° (W) 22:50:07 437.485
VELOX 1 04 Aug 22:45:13 22:47:09 13° 67° (ENE) 22:49:19 145.980
ZACube-1 04 Aug 22:47:02 22:51:15 88° 256° (WSW) 22:55:34 437.345
Cosmos 2491 04 Aug 22:54:15 23:01:03 26° 69° (ENE) 23:08:09 435.465 / 435.565
HUMSAT D 04 Aug 22:59:50 23:03:49 48° 75° (ENE) 23:07:54 437.325/437.525
AAUSAT CUBESAT 2 04 Aug 23:01:01 23:03:32 15° 268° (W) 23:05:54 437.432
FUNcube-1 04 Aug 23:06:59 23:11:04 51° 261° (W) 23:15:16 145.935
ESTCUBE 1 04 Aug 23:12:08 23:15:13 19° 69° (ENE) 23:18:28 437.505/2401.250
Oscar 11 04 Aug 23:13:10 23:16:50 25° 265° (W) 23:20:25 145.826/435.025
UKube-1 04 Aug 23:14:17 23:18:23 44° 73° (ENE) 23:22:31 .
YUBILEINY 04 Aug 23:14:25 23:17:58 14° 80° (E) 23:22:13 435.215
50 SAT 04 Aug 23:17:34 23:21:02 33° 73° (ENE) 23:24:36 437.505
UWE-3 04 Aug 23:21:12 23:24:44 25° 265° (W) 23:28:17 435.000/436.395/437.385
TIGRISAT 04 Aug 23:26:05 23:30:01 27° 95° (E) 23:34:01 435.000
ANTELSAT 04 Aug 23:29:35 23:33:42 30° 96° (E) 23:37:52 437.575/2403.000
AIST 1 04 Aug 23:31:20 23:35:29 51° 80° (E) 23:39:39
M-CUBED/EXP-1 PRIME 04 Aug 23:31:43 23:36:31 84° 288° (WNW) 23:41:04 437.505
BEESAT 2 04 Aug 23:39:04 23:43:08 69° 300° (WNW) 23:47:15 435.950
AISAT 04 Aug 23:41:15 23:45:34 60° 75° (ENE) 23:49:55 437.250
CUBEBUG 1 04 Aug 23:42:45 23:46:35 32° 73° (ENE) 23:50:30 437.445
POPSAT HIP 1 04 Aug 23:44:28 23:46:39 14° 91° (E) 23:49:03 437.405
